TimeEDT,TemperatureF,Dew PointF,Humidity,Sea Level PressureIn,VisibilityMPH,Wind Direction,Wind SpeedMPH,Gust SpeedMPH,PrecipitationIn,Events,Conditions,WindDirDegrees,DateUTC
12:54 AM,44.1,41.0,89,30.16,8.0,Calm,Calm,-,N/A,,Clear,0,2013-09-27 04:54:00
1:45 AM,42.8,41.0,93,30.16,1.8,Calm,Calm,-,N/A,,Clear,0,2013-09-27 05:45:00
1:51 AM,42.8,42.8,100,30.16,3.0,Calm,Calm,-,N/A,,Clear,0,2013-09-27 05:51:00
1:54 AM,43.0,41.0,93,30.17,3.0,Calm,Calm,-,N/A,,Clear,0,2013-09-27 05:54:00
2:07 AM,42.8,41.0,93,30.16,1.5,Calm,Calm,-,N/A,,Clear,0,2013-09-27 06:07:00
2:14 AM,41.0,39.2,93,30.16,0.8,Calm,Calm,-,N/A,,Mist,0,2013-09-27 06:14:00
2:22 AM,42.8,39.2,87,30.16,1.0,Calm,Calm,-,N/A,,Mist,0,2013-09-27 06:22:00
2:30 AM,41.0,39.2,93,30.16,2.0,Calm,Calm,-,N/A,,Scattered Clouds,0,2013-09-27 06:30:00
2:39 AM,39.2,37.4,93,30.16,5.0,Calm,Calm,-,N/A,,Scattered Clouds,0,2013-09-27 06:39:00
2:54 AM,41.0,39.0,93,30.17,7.0,Calm,Calm,-,N/A,,Partly Cloudy,0,2013-09-27 06:54:00
3:54 AM,39.9,37.9,93,30.17,2.5,Calm,Calm,-,N/A,,Scattered Clouds,0,2013-09-27 07:54:00
4:00 AM,39.2,37.4,93,30.16,2.5,Calm,Calm,-,N/A,,Mostly Cloudy,0,2013-09-27 08:00:00
4:08 AM,39.2,37.4,93,30.17,0.8,Calm,Calm,-,N/A,,Mist,0,2013-09-27 08:08:00
4:16 AM,39.2,37.4,93,30.17,1.0,Calm,Calm,-,N/A,,Mist,0,2013-09-27 08:16:00
4:23 AM,39.2,37.4,93,30.17,0.2,Calm,Calm,-,N/A,Fog,Fog,0,2013-09-27 08:23:00
4:31 AM,39.2,37.4,93,30.17,1.0,South,3.5,-,N/A,,Mist,180,2013-09-27 08:31:00
4:44 AM,39.2,37.4,93,30.17,0.8,Calm,Calm,-,N/A,,Mist,0,2013-09-27 08:44:00
4:54 AM,39.0,37.0,93,30.19,0.8,Calm,Calm,-,N/A,,Overcast,0,2013-09-27 08:54:00
5:20 AM,39.2,37.4,93,30.19,0.2,Calm,Calm,-,N/A,Fog,Fog,0,2013-09-27 09:20:00
5:54 AM,39.0,37.9,96,30.21,0.2,South,3.5,-,N/A,Fog,Fog,190,2013-09-27 09:54:00
6:14 AM,39.2,37.4,93,30.20,0.8,Calm,Calm,-,N/A,,Mist,0,2013-09-27 10:14:00
6:29 AM,39.2,37.4,93,30.21,1.2,Calm,Calm,-,N/A,,Partly Cloudy,0,2013-09-27 10:29:00
6:35 AM,39.2,37.4,93,30.21,3.0,Calm,Calm,-,N/A,,Clear,0,2013-09-27 10:35:00
6:41 AM,39.2,37.4,93,30.21,1.8,Calm,Calm,-,N/A,,Clear,0,2013-09-27 10:41:00
6:54 AM,37.9,37.0,97,30.23,2.5,South,3.5,-,N/A,,Partly Cloudy,180,2013-09-27 10:54:00
7:01 AM,37.4,37.4,100,30.22,8.0,Calm,Calm,-,N/A,,Partly Cloudy,0,2013-09-27 11:01:00
7:27 AM,39.2,37.4,93,30.23,9.0,Calm,Calm,-,N/A,,Mostly Cloudy,0,2013-09-27 11:27:00
7:54 AM,43.0,42.1,97,30.25,10.0,Calm,Calm,-,N/A,,Overcast,0,2013-09-27 11:54:00
8:36 AM,46.4,44.6,93,30.25,10.0,Calm,Calm,-,N/A,,Overcast,0,2013-09-27 12:36:00
8:54 AM,46.9,45.0,93,30.27,10.0,Calm,Calm,-,N/A,,Overcast,0,2013-09-27 12:54:00
9:34 AM,50.0,46.4,87,30.26,10.0,Calm,Calm,-,N/A,,Overcast,0,2013-09-27 13:34:00
9:54 AM,51.1,46.9,86,30.27,10.0,Calm,Calm,-,N/A,,Overcast,0,2013-09-27 13:54:00
10:54 AM,54.0,48.0,80,30.27,10.0,Calm,Calm,-,N/A,,Overcast,0,2013-09-27 14:54:00
11:54 AM,57.9,48.0,70,30.27,10.0,Variable,4.6,-,N/A,,Overcast,0,2013-09-27 15:54:00
12:54 PM,60.1,48.0,64,30.26,10.0,North,4.6,-,N/A,,Overcast,10,2013-09-27 16:54:00
1:54 PM,60.1,48.0,64,30.25,10.0,North,3.5,-,N/A,,Overcast,10,2013-09-27 17:54:00
2:54 PM,59.0,48.9,69,30.25,10.0,North,4.6,-,N/A,,Overcast,350,2013-09-27 18:54:00
3:54 PM,59.0,48.9,69,30.25,10.0,North,3.5,-,N/A,,Overcast,350,2013-09-27 19:54:00
4:54 PM,57.9,50.0,75,30.26,10.0,Calm,Calm,-,N/A,,Overcast,0,2013-09-27 20:54:00
5:06 PM,57.2,51.8,82,30.25,10.0,Calm,Calm,-,N/A,,Overcast,0,2013-09-27 21:06:00
5:54 PM,55.9,51.1,84,30.27,10.0,Calm,Calm,-,N/A,,Overcast,0,2013-09-27 21:54:00
6:54 PM,55.0,50.0,83,30.27,7.0,Calm,Calm,-,N/A,,Overcast,0,2013-09-27 22:54:00
7:54 PM,51.1,48.9,92,30.28,10.0,Calm,Calm,-,N/A,,Clear,0,2013-09-27 23:54:00
8:39 PM,48.2,46.4,93,30.28,1.8,Calm,Calm,-,N/A,,Clear,0,2013-09-28 00:39:00
8:54 PM,46.9,46.0,97,30.29,3.0,Calm,Calm,-,N/A,,Clear,0,2013-09-28 00:54:00
9:54 PM,44.1,43.0,96,30.31,10.0,Calm,Calm,-,N/A,,Clear,0,2013-09-28 01:54:00
10:54 PM,44.1,42.1,93,30.31,10.0,Calm,Calm,-,N/A,,Clear,0,2013-09-28 02:54:00
11:54 PM,43.0,41.0,93,30.31,10.0,Calm,Calm,-,N/A,,Clear,0,2013-09-28 03:54:00